Location: Parc National du Mont-Orford
(45.3122°N, 72.2403°W)
Time: 20:36:48
(UTC-04:00)

Envisat - Pass Details

Date: 26 January 2018
Orbit: 764 x 766 km, 98.2° (Epoch: 23 May)

Event Time Altitude Azimuth Distance (km) Brightness Sun altitude
Exits shadow 18:24:28 29° 76° (ENE) 1,381 3.7 -17.0°
Maximum altitude 18:24:59 30° 65° (ENE) 1,364 3.7 -17.1°
Drops below altitude 10° 18:29:20 10° 6° (N) 2,310 5.3 -17.8°
Sets 18:31:53 0° 356° (N) 3,241 6.2 -18.3°
